NSZ456 ESSA-EYVI

Flight info

Callsign NSZ456
Flight time 1h 9m
Altitude 27000
Route BABAP P156 RASEL/N0453F370 DCT ASKOR DCT OTNAV
Aircraft B38M/M-SDE1FGHILORVWXY/HB1

Departure

Time 2026-05-08 18:23
Airport Stockholm-Arlanda Airport (ESSA)

Arrival

Time 2026-05-08 19:32
Airport Vilnius International Airport (EYVI)
Time Latitude Longitude Altitude Speed Heading
2026-05-08 17:38 59.65142 17.92811 140 ft 0 kts 191°
2026-05-08 18:09 59.65153 17.92816 140 ft 4 kts 191°
2026-05-08 18:09 59.65180 17.92825 140 ft 4 kts 191°
2026-05-08 18:09 59.65198 17.92835 140 ft 2 kts 214°
2026-05-08 18:10 59.65203 17.92853 140 ft 3 kts 276°
2026-05-08 18:10 59.65199 17.92885 140 ft 2 kts 317°
2026-05-08 18:10 59.65192 17.92899 140 ft 2 kts 314°
2026-05-08 18:10 59.65188 17.92907 140 ft 0 kts 314°
2026-05-08 18:11 59.65189 17.92905 140 ft 0 kts 314°
2026-05-08 18:11 59.65189 17.92904 140 ft 0 kts 314°
2026-05-08 18:15 59.65197 17.92889 140 ft 3 kts 314°
2026-05-08 18:15 59.65221 17.92843 140 ft 6 kts 320°
2026-05-08 18:16 59.65265 17.92793 140 ft 9 kts 333°
2026-05-08 18:16 59.65329 17.92730 140 ft 12 kts 333°
2026-05-08 18:16 59.65413 17.92645 140 ft 15 kts 334°
2026-05-08 18:16 59.65516 17.92546 140 ft 17 kts 338°
2026-05-08 18:17 59.65642 17.92474 140 ft 20 kts 346°
2026-05-08 18:17 59.65764 17.92428 140 ft 15 kts 359°
2026-05-08 18:17 59.65831 17.92444 140 ft 8 kts 11°
2026-05-08 18:17 59.65893 17.92467 140 ft 10 kts 11°
2026-05-08 18:18 59.65971 17.92498 141 ft 13 kts 11°
2026-05-08 18:18 59.66073 17.92534 141 ft 17 kts
2026-05-08 18:18 59.66201 17.92580 140 ft 20 kts 10°
2026-05-08 18:18 59.66348 17.92635 140 ft 21 kts 10°
2026-05-08 18:19 59.66498 17.92633 140 ft 16 kts 340°
2026-05-08 18:19 59.66536 17.92606 141 ft 0 kts 340°
2026-05-08 18:20 59.66542 17.92603 141 ft 1 kts 340°
2026-05-08 18:20 59.66547 17.92599 141 ft 0 kts 340°
2026-05-08 18:20 59.66561 17.92589 141 ft 4 kts 340°
2026-05-08 18:21 59.66595 17.92563 141 ft 6 kts 336°
2026-05-08 18:21 59.66620 17.92500 143 ft 5 kts 284°
2026-05-08 18:21 59.66619 17.92443 144 ft 4 kts 259°
2026-05-08 18:21 59.66605 17.92388 144 ft 6 kts 231°
2026-05-08 18:22 59.66572 17.92355 144 ft 0 kts 189°
2026-05-08 18:22 59.66563 17.92352 144 ft 4 kts 190°
2026-05-08 18:23 59.66393 17.92290 144 ft 65 kts 191°
2026-05-08 18:23 59.65651 17.92016 147 ft 149 kts 191°
2026-05-08 18:23 59.64475 17.91559 604 ft 186 kts 190°
2026-05-08 18:23 59.63191 17.91107 1826 ft 185 kts 187°
2026-05-08 18:24 59.61911 17.90748 2714 ft 195 kts 184°
2026-05-08 18:24 59.60555 17.90922 2781 ft 199 kts 155°
2026-05-08 18:24 59.59538 17.92717 2815 ft 200 kts 121°
2026-05-08 18:24 59.59128 17.95318 2888 ft 202 kts 92°
2026-05-08 18:25 59.59392 17.98048 3025 ft 205 kts 76°
2026-05-08 18:25 59.59774 18.00760 3210 ft 205 kts 77°
2026-05-08 18:25 59.60137 18.03490 3381 ft 206 kts 77°
2026-05-08 18:25 59.60493 18.06229 3532 ft 206 kts 77°
2026-05-08 18:26 59.60843 18.08975 3670 ft 206 kts 77°
2026-05-08 18:26 59.61189 18.11722 3823 ft 207 kts 77°
2026-05-08 18:26 59.61563 18.14462 3959 ft 216 kts 72°
2026-05-08 18:26 59.62098 18.17421 4031 ft 235 kts 71°
2026-05-08 18:27 59.62656 18.20526 4070 ft 248 kts 71°
2026-05-08 18:27 59.63044 18.22706 4120 ft 252 kts 72°
2026-05-08 18:27 59.63812 18.27064 4294 ft 255 kts 72°
2026-05-08 18:27 59.64244 18.30458 4407 ft 253 kts 91°
2026-05-08 18:28 59.63820 18.33796 4555 ft 253 kts 116°
2026-05-08 18:28 59.62778 18.36601 4725 ft 255 kts 135°
2026-05-08 18:28 59.61369 18.38805 5024 ft 261 kts 142°
2026-05-08 18:28 59.59914 18.40952 6115 ft 261 kts 142°
2026-05-08 18:29 59.58451 18.43099 7211 ft 266 kts 142°
2026-05-08 18:29 59.56966 18.45269 8228 ft 271 kts 143°
2026-05-08 18:29 59.55437 18.47493 9283 ft 276 kts 143°
2026-05-08 18:29 59.53878 18.49758 10283 ft 281 kts 143°
2026-05-08 18:30 59.52273 18.52088 11026 ft 295 kts 143°
2026-05-08 18:30 59.50563 18.54565 11548 ft 315 kts 143°
2026-05-08 18:30 59.48749 18.57191 12149 ft 330 kts 143°
2026-05-08 18:30 59.46863 18.59915 12922 ft 339 kts 143°
2026-05-08 18:31 59.44986 18.62622 13875 ft 342 kts 144°
2026-05-08 18:31 59.43047 18.65413 14696 ft 347 kts 144°
2026-05-08 18:31 59.41085 18.68235 15556 ft 351 kts 144°
2026-05-08 18:31 59.39101 18.71082 16371 ft 355 kts 144°
2026-05-08 18:32 59.37118 18.73925 17169 ft 359 kts 144°
2026-05-08 18:32 59.35085 18.76834 17957 ft 363 kts 144°
2026-05-08 18:32 59.33030 18.79771 18734 ft 368 kts 144°
2026-05-08 18:32 59.30955 18.82733 19408 ft 371 kts 144°
2026-05-08 18:33 59.28858 18.85720 20085 ft 374 kts 144°
2026-05-08 18:33 59.26742 18.88729 20753 ft 377 kts 144°
2026-05-08 18:33 59.24609 18.91759 21419 ft 381 kts 145°
2026-05-08 18:33 59.22458 18.94808 22074 ft 384 kts 145°
2026-05-08 18:34 59.20279 18.97893 22725 ft 387 kts 145°
2026-05-08 18:34 59.18089 19.00988 23356 ft 391 kts 145°
2026-05-08 18:34 59.15878 19.04108 23966 ft 394 kts 145°
2026-05-08 18:34 59.13641 19.07258 24482 ft 397 kts 145°
2026-05-08 18:35 59.11398 19.10412 25023 ft 399 kts 146°
2026-05-08 18:35 59.09166 19.13545 25549 ft 401 kts 146°
2026-05-08 18:35 59.06895 19.16726 26067 ft 403 kts 146°
2026-05-08 18:35 59.04615 19.19919 26584 ft 406 kts 146°
2026-05-08 18:36 59.02311 19.23138 27078 ft 408 kts 147°
2026-05-08 18:36 58.99974 19.26333 27318 ft 413 kts 150°
2026-05-08 18:36 58.97500 19.29300 27327 ft 422 kts 150°
2026-05-08 18:36 58.94998 19.32320 27335 ft 425 kts 150°
2026-05-08 18:37 58.92493 19.35364 27358 ft 425 kts 150°
2026-05-08 18:37 58.89990 19.38410 27364 ft 424 kts 150°
2026-05-08 18:37 58.87495 19.41445 27372 ft 424 kts 150°
2026-05-08 18:37 58.84981 19.44498 27364 ft 424 kts 150°
2026-05-08 18:38 58.82482 19.47526 27365 ft 424 kts 150°
2026-05-08 18:38 58.80018 19.50509 27360 ft 423 kts 150°
2026-05-08 18:38 58.77494 19.53559 27360 ft 423 kts 150°
2026-05-08 18:38 58.75030 19.56531 27358 ft 423 kts 150°
2026-05-08 18:39 58.72531 19.59540 27360 ft 423 kts 150°
2026-05-08 18:39 58.70038 19.62538 27358 ft 422 kts 150°
2026-05-08 18:39 58.67512 19.65569 27360 ft 422 kts 150°
2026-05-08 18:39 58.65043 19.68526 27363 ft 422 kts 150°
2026-05-08 18:40 58.62553 19.71504 27355 ft 421 kts 150°
2026-05-08 18:40 58.60063 19.74477 27352 ft 421 kts 150°
2026-05-08 18:40 58.57572 19.77446 27360 ft 421 kts 150°
2026-05-08 18:40 58.55084 19.80407 27350 ft 420 kts 150°
2026-05-08 18:41 58.52601 19.83356 27354 ft 420 kts 150°
2026-05-08 18:41 58.50115 19.86304 27354 ft 420 kts 150°
2026-05-08 18:41 58.47633 19.89242 27359 ft 420 kts 150°
2026-05-08 18:41 58.45149 19.92179 27355 ft 419 kts 150°
2026-05-08 18:42 58.42674 19.95134 27349 ft 419 kts 150°
2026-05-08 18:42 58.40234 19.98027 27352 ft 419 kts 150°
2026-05-08 18:42 58.37754 20.00947 27346 ft 419 kts 150°
2026-05-08 18:42 58.35265 20.03867 27346 ft 418 kts 150°
2026-05-08 18:43 58.32783 20.06772 27346 ft 418 kts 150°
2026-05-08 18:43 58.30303 20.09669 27348 ft 418 kts 150°
2026-05-08 18:43 58.27824 20.12560 27353 ft 418 kts 150°
2026-05-08 18:43 58.25343 20.15450 27342 ft 418 kts 150°
2026-05-08 18:44 58.22858 20.18338 27344 ft 418 kts 150°
2026-05-08 18:44 58.20407 20.21183 27343 ft 418 kts 150°
2026-05-08 18:44 58.17925 20.24057 27339 ft 418 kts 150°
2026-05-08 18:44 58.15444 20.26928 27361 ft 418 kts 150°
2026-05-08 18:45 58.12949 20.29807 27840 ft 418 kts 150°
2026-05-08 18:45 58.10469 20.32667 28461 ft 417 kts 151°
2026-05-08 18:45 58.07991 20.35521 29022 ft 417 kts 151°
2026-05-08 18:45 58.05507 20.38378 29591 ft 416 kts 151°
2026-05-08 18:46 58.03044 20.41255 30149 ft 417 kts 148°
2026-05-08 18:46 58.00737 20.44598 30649 ft 418 kts 146°
2026-05-08 18:46 57.98425 20.47929 31061 ft 419 kts 146°
2026-05-08 18:46 57.96128 20.51193 31474 ft 419 kts 147°
2026-05-08 18:47 57.93793 20.54482 31908 ft 419 kts 147°
2026-05-08 18:47 57.91453 20.57765 32339 ft 419 kts 147°
2026-05-08 18:47 57.89112 20.61040 32782 ft 419 kts 147°
2026-05-08 18:47 57.86775 20.64304 33212 ft 418 kts 147°
2026-05-08 18:48 57.84436 20.67566 33651 ft 418 kts 147°
2026-05-08 18:48 57.82095 20.70824 34102 ft 417 kts 147°
2026-05-08 18:48 57.79794 20.74024 34514 ft 417 kts 147°
2026-05-08 18:48 57.77458 20.77266 34792 ft 419 kts 147°
2026-05-08 18:49 57.75109 20.80520 35029 ft 422 kts 147°
2026-05-08 18:49 57.72744 20.83790 35279 ft 424 kts 147°
2026-05-08 18:49 57.70365 20.87075 35536 ft 426 kts 147°
2026-05-08 18:49 57.67972 20.90373 35792 ft 428 kts 147°
2026-05-08 18:50 57.65564 20.93686 36047 ft 431 kts 147°
2026-05-08 18:50 57.63142 20.97014 36302 ft 433 kts 147°
2026-05-08 18:50 57.60709 21.00350 36551 ft 435 kts 146°
2026-05-08 18:50 57.58269 21.03689 36789 ft 436 kts 146°
2026-05-08 18:51 57.55813 21.07047 37032 ft 438 kts 146°
2026-05-08 18:51 57.53339 21.10421 37223 ft 440 kts 146°
2026-05-08 18:51 57.48377 21.17174 37284 ft 442 kts 146°
2026-05-08 18:52 57.43455 21.23848 37273 ft 441 kts 146°
2026-05-08 18:52 57.38495 21.30551 37268 ft 441 kts 146°
2026-05-08 18:53 57.33531 21.37238 37265 ft 441 kts 146°
2026-05-08 18:53 57.28554 21.43918 37267 ft 441 kts 146°
2026-05-08 18:54 57.23586 21.50563 37270 ft 441 kts 146°
2026-05-08 18:54 57.18614 21.57191 37262 ft 441 kts 146°
2026-05-08 18:55 57.11152 21.67098 37271 ft 441 kts 146°
2026-05-08 18:56 57.06207 21.73635 37269 ft 440 kts 146°
2026-05-08 18:56 57.01228 21.80195 37267 ft 440 kts 147°
2026-05-08 18:57 56.96245 21.86738 37266 ft 440 kts 147°
2026-05-08 18:57 56.91257 21.93265 37263 ft 440 kts 147°
2026-05-08 18:58 56.86304 21.99725 37259 ft 440 kts 147°
2026-05-08 18:58 56.81320 22.06204 37255 ft 439 kts 147°
2026-05-08 18:59 56.76334 22.12665 37254 ft 439 kts 147°
2026-05-08 18:59 56.71347 22.19105 37250 ft 439 kts 147°
2026-05-08 19:00 56.67201 22.24442 37246 ft 439 kts 147°
2026-05-08 19:00 56.62212 22.30846 37250 ft 439 kts 147°
2026-05-08 19:01 56.57226 22.37225 37242 ft 439 kts 147°
2026-05-08 19:01 56.52227 22.43601 37241 ft 438 kts 147°
2026-05-08 19:02 56.47231 22.49955 37238 ft 439 kts 147°
2026-05-08 19:02 56.42235 22.56290 37234 ft 438 kts 147°
2026-05-08 19:03 56.37354 22.62788 37231 ft 439 kts 142°
2026-05-08 19:03 56.32659 22.69888 37228 ft 439 kts 142°
2026-05-08 19:04 56.27936 22.76887 37223 ft 439 kts 143°
2026-05-08 19:04 56.23204 22.83859 37220 ft 439 kts 143°
2026-05-08 19:05 56.18466 22.90814 37219 ft 439 kts 143°
2026-05-08 19:05 56.13761 22.97699 37214 ft 439 kts 143°
2026-05-08 19:06 56.09022 23.04610 37210 ft 439 kts 143°
2026-05-08 19:06 56.04276 23.11510 37210 ft 439 kts 143°
2026-05-08 19:07 55.99536 23.18378 37207 ft 438 kts 143°
2026-05-08 19:07 55.94794 23.25227 37209 ft 438 kts 143°
2026-05-08 19:07 55.92438 23.28622 36794 ft 433 kts 143°
2026-05-08 19:08 55.90123 23.31951 36214 ft 430 kts 143°
2026-05-08 19:08 55.87808 23.35275 35637 ft 426 kts 143°
2026-05-08 19:08 55.85495 23.38593 34913 ft 426 kts 143°
2026-05-08 19:08 55.83188 23.41895 34251 ft 423 kts 143°
2026-05-08 19:09 55.80901 23.45165 33510 ft 420 kts 143°
2026-05-08 19:09 55.78612 23.48435 32437 ft 424 kts 143°
2026-05-08 19:09 55.76299 23.51731 31540 ft 426 kts 143°
2026-05-08 19:09 55.74021 23.54971 30967 ft 420 kts 142°
2026-05-08 19:10 55.71759 23.58184 30427 ft 414 kts 142°
2026-05-08 19:10 55.69519 23.61361 29766 ft 409 kts 142°
2026-05-08 19:10 55.67305 23.64496 29140 ft 405 kts 142°
2026-05-08 19:10 55.65121 23.67584 28571 ft 400 kts 142°
2026-05-08 19:11 55.62958 23.70639 28001 ft 395 kts 142°
2026-05-08 19:11 55.60824 23.73649 27451 ft 392 kts 142°
2026-05-08 19:11 55.58668 23.76684 26867 ft 397 kts 142°
2026-05-08 19:11 55.56502 23.79730 26306 ft 400 kts 142°
2026-05-08 19:12 55.54323 23.82789 25751 ft 400 kts 141°
2026-05-08 19:12 55.52150 23.85836 25197 ft 398 kts 141°
2026-05-08 19:12 55.49981 23.88872 24642 ft 397 kts 141°
2026-05-08 19:12 55.47823 23.91888 24086 ft 395 kts 141°
2026-05-08 19:13 55.45668 23.94896 23493 ft 394 kts 141°
2026-05-08 19:13 55.43523 23.97886 22874 ft 392 kts 141°
2026-05-08 19:13 55.41388 24.00856 22320 ft 390 kts 141°
2026-05-08 19:13 55.39263 24.03811 21791 ft 388 kts 141°
2026-05-08 19:14 55.37175 24.06709 21260 ft 386 kts 141°
2026-05-08 19:14 55.35066 24.09631 20737 ft 384 kts 141°
2026-05-08 19:14 55.32971 24.12531 20218 ft 382 kts 141°
2026-05-08 19:14 55.30890 24.15408 19711 ft 379 kts 142°
2026-05-08 19:15 55.28819 24.18267 19211 ft 377 kts 142°
2026-05-08 19:15 55.26758 24.21107 18718 ft 374 kts 142°
2026-05-08 19:15 55.24721 24.23912 18203 ft 372 kts 142°
2026-05-08 19:15 55.22692 24.26703 17674 ft 369 kts 141°
2026-05-08 19:16 55.20680 24.29464 17194 ft 365 kts 141°
2026-05-08 19:16 55.18690 24.32195 16749 ft 361 kts 141°
2026-05-08 19:16 55.16749 24.34852 16295 ft 357 kts 141°
2026-05-08 19:16 55.14803 24.37514 15849 ft 353 kts 141°
2026-05-08 19:17 55.12870 24.40153 15413 ft 350 kts 141°
2026-05-08 19:17 55.10960 24.42759 14981 ft 346 kts 140°
2026-05-08 19:17 55.09066 24.45340 14552 ft 343 kts 140°
2026-05-08 19:17 55.07196 24.47886 14133 ft 340 kts 140°
2026-05-08 19:18 55.05336 24.50416 13671 ft 337 kts 140°
2026-05-08 19:18 55.03490 24.52923 13217 ft 335 kts 140°
2026-05-08 19:18 55.01683 24.55374 12806 ft 331 kts 140°
2026-05-08 19:18 54.99868 24.57834 12398 ft 331 kts 140°
2026-05-08 19:19 54.98034 24.60317 11970 ft 336 kts 140°
2026-05-08 19:19 54.96239 24.62744 11565 ft 336 kts 140°
2026-05-08 19:19 54.94394 24.65184 11325 ft 329 kts 144°
2026-05-08 19:19 54.92296 24.66670 11125 ft 325 kts 166°
2026-05-08 19:20 54.90062 24.66719 10984 ft 320 kts 184°
2026-05-08 19:20 54.88618 24.66354 10893 ft 313 kts 185°
2026-05-08 19:20 54.85819 24.65608 10687 ft 300 kts 185°
2026-05-08 19:20 54.83787 24.65043 10541 ft 291 kts 185°
2026-05-08 19:21 54.81811 24.64480 10394 ft 283 kts 186°
2026-05-08 19:21 54.79897 24.63928 10242 ft 275 kts 186°
2026-05-08 19:21 54.78022 24.63390 9977 ft 272 kts 184°
2026-05-08 19:21 54.76173 24.63598 9590 ft 263 kts 157°
2026-05-08 19:22 54.74641 24.65142 9290 ft 252 kts 134°
2026-05-08 19:22 54.73402 24.67237 9051 ft 247 kts 131°
2026-05-08 19:22 54.72187 24.69392 8787 ft 253 kts 130°
2026-05-08 19:22 54.70963 24.71624 8510 ft 256 kts 129°
2026-05-08 19:23 54.69745 24.73881 8234 ft 256 kts 129°
2026-05-08 19:23 54.68539 24.76135 7958 ft 255 kts 129°
2026-05-08 19:23 54.67337 24.78393 7681 ft 253 kts 128°
2026-05-08 19:23 54.66168 24.80598 7412 ft 251 kts 128°
2026-05-08 19:24 54.64997 24.82811 7145 ft 249 kts 128°
2026-05-08 19:24 54.63833 24.85012 6875 ft 247 kts 128°
2026-05-08 19:24 54.62679 24.87194 6594 ft 245 kts 128°
2026-05-08 19:24 54.61536 24.89351 6316 ft 242 kts 128°
2026-05-08 19:25 54.60403 24.91488 6038 ft 240 kts 127°
2026-05-08 19:25 54.59284 24.93598 5772 ft 236 kts 127°
2026-05-08 19:25 54.58132 24.95614 5506 ft 234 kts 129°
2026-05-08 19:25 54.56986 24.97538 5332 ft 227 kts 129°
2026-05-08 19:26 54.55881 24.99401 5210 ft 217 kts 129°
2026-05-08 19:26 54.54849 25.01144 5085 ft 201 kts 129°
2026-05-08 19:26 54.53889 25.02764 4979 ft 186 kts 128°
2026-05-08 19:26 54.52982 25.04304 4893 ft 185 kts 128°
2026-05-08 19:27 54.52047 25.05890 4787 ft 192 kts 128°
2026-05-08 19:27 54.51091 25.07507 4679 ft 193 kts 128°
2026-05-08 19:27 54.50131 25.09130 4531 ft 193 kts 128°
2026-05-08 19:27 54.49172 25.10752 4408 ft 193 kts 128°
2026-05-08 19:28 54.48213 25.12379 4258 ft 193 kts 126°
2026-05-08 19:28 54.47610 25.14326 3962 ft 182 kts 94°
2026-05-08 19:28 54.47786 25.16406 3715 ft 176 kts 64°
2026-05-08 19:28 54.48603 25.17953 3596 ft 178 kts 43°
2026-05-08 19:29 54.49663 25.19038 3387 ft 182 kts 32°
2026-05-08 19:29 54.50839 25.19894 3131 ft 183 kts 29°
2026-05-08 19:29 54.52017 25.20703 2876 ft 181 kts 28°
2026-05-08 19:29 54.53172 25.21497 2636 ft 175 kts 28°
2026-05-08 19:30 54.54283 25.22264 2410 ft 169 kts 27°
2026-05-08 19:30 54.55359 25.23005 2176 ft 164 kts 27°
2026-05-08 19:30 54.56375 25.23705 1945 ft 149 kts 26°
2026-05-08 19:30 54.57283 25.24333 1767 ft 132 kts 26°
2026-05-08 19:31 54.58114 25.24909 1565 ft 125 kts 25°
2026-05-08 19:31 54.58912 25.25463 1405 ft 124 kts 24°
2026-05-08 19:31 54.59724 25.26024 1215 ft 127 kts 22°
2026-05-08 19:31 54.60542 25.26589 1027 ft 127 kts 22°
2026-05-08 19:32 54.61362 25.27160 897 ft 126 kts 20°
2026-05-08 19:32 54.62173 25.27716 683 ft 125 kts 21°
2026-05-08 19:32 54.62952 25.28254 617 ft 111 kts 22°
2026-05-08 19:32 54.63468 25.28614 615 ft 49 kts 22°
2026-05-08 19:33 54.63695 25.28764 633 ft 22 kts
2026-05-08 19:33 54.63805 25.28750 635 ft 12 kts 354°
2026-05-08 19:33 54.63861 25.28741 640 ft 6 kts 355°
2026-05-08 19:33 54.63905 25.28734 641 ft 7 kts 355°
2026-05-08 19:34 54.63958 25.28725 643 ft 8 kts 354°
2026-05-08 19:34 54.64024 25.28714 645 ft 11 kts 354°
2026-05-08 19:34 54.64103 25.28699 649 ft 13 kts 353°
2026-05-08 19:34 54.64198 25.28683 650 ft 15 kts 355°
2026-05-08 19:35 54.64309 25.28669 653 ft 17 kts 355°
2026-05-08 19:35 54.64423 25.28639 654 ft 16 kts 351°
2026-05-08 19:35 54.64474 25.28625 655 ft 7 kts 349°
2026-05-08 19:35 54.64502 25.28603 653 ft 1 kts 322°
2026-05-08 19:36 54.64507 25.28565 652 ft 6 kts 262°
2026-05-08 19:36 54.64489 25.28522 651 ft 2 kts 199°
2026-05-08 19:36 54.64465 25.28520 649 ft 4 kts 180°
2026-05-08 19:36 54.64451 25.28521 649 ft 1 kts 177°
2026-05-08 19:37 54.64448 25.28522 649 ft 0 kts 177°